Cloud_Cover
2 23 46 18 36 100 100 30 32 42 37 30 4 0 0 0 4 5 5 3 92 100 100 100 100 100 100 100 100 100 100 96 47 30 5 17 20 1 42 5 0 0 0 0 0
79 89 99 100 88 100 100 32 30 32 8 16 0 0 0 1 5 5 5 5 14 5 52 100 100 100 100 100 100 100 100 36 28 71 40 0 0 0 0 35 0 0 0 1 0
81 86 92 100 100 100 56 72 33 26 5 12 0 0 0 0 0 2 5 5 5 5 46 100 100 100 100 100 81 78 47 6 84 19 43 4 1 0 0 0 0 0 0 0 0
44 92 72 100 100 57 38 65 41 14 26 0 0 0 0 0 0 0 5 5 5 5 8 100 100 100 100 100 100 64 5 22 99 95 38 4 3 0 0 2 0 0 0 5 0
44 100 100 100 100 100 88 96 29 20 2 1 0 0 0 0 0 0 5 5 5 5 10 100 100 100 67 100 100 98 95 1 78 99 100 38 97 70 0 0 0 0 0 0 0
74 100 100 100 100 100 100 58 28 16 5 5 0 0 3 0 0 1 0 2 5 37 17 80 97 87 100 100 96 39 95 21 8 5 5 1 6 5 96 5 0 0 0 1 2
62 100 100 100 100 100 84 31 20 7 0 3 0 3 0 0 0 4 0 0 3 47 87 78 91 100 100 78 95 60 98 4 0 0 2 8 5 0 2 30 0 2 4 5 43
100 100 100 100 100 100 28 1 1 0 2 5 5 3 0 1 0 0 0 2 5 78 75 96 100 100 80 92 100 59 52 38 5 94 3 11 5 7 3 6 4 10 12 11 1
100 100 100 100 100 70 0 0 0 0 5 1 2 1 2 2 0 0 0 3 5 48 73 66 100 100 36 82 78 100 100 87 46 5 54 100 68 16 6 38 1 9 100 77 80
100 100 100 100 100 1 0 0 0 0 3 0 0 0 1 0 0 0 2 34 23 15 7 42 19 83 92 100 94 80 97 21 66 39 99 25 100 100 78 5 65 13 100 100 100
100 100 100 100 44 0 12 0 0 0 0 0 0 0 0 3 5 0 5 56 5 5 5 99 64 58 100 100 100 100 18 28 100 84 51 51 100 71 99 4 42 93 100 100 100
100 100 100 97 0 33 29 0 0 0 0 0 1 5 1 0 0 1 4 14 82 72 24 73 100 89 100 100 99 100 40 90 87 93 70 26 69 44 41 100 100 89 99 100 100
100 100 100 24 30 34 0 0 0 0 0 0 0 0 0 0 2 2 1 4 78 100 100 100 98 100 100 100 100 100 86 100 98 94 100 100 100 96 71 95 100 96 100 100 100
100 99 100 79 14 0 0 0 0 0 0 0 0 0 0 0 1 5 5 10 12 83 90 96 99 100 100 100 100 100 100 99 100 100 98 100 100 100 87 96 100 100 99 100 94
98 64 100 82 1 0 0 0 0 0 0 0 0 0 0 6 0 12 0 33 6 96 98 84 71 91 100 100 100 99 100 100 100 100 100 100 56 88 100 93 5 6 100 100 100
70 0 99 32 2 3 0 0 0 0 0 0 0 0 0 0 79 61 1 4 0 1 100 100 100 100 100 100 100 100 100 100 100 100 100 100 97 59 100 91 3 8 79 96 100
33 0 64 0 0 0 0 0 0 0 0 0 0 0 0 0 29 10 0 0 0 0 0 29 99 100 100 100 100 100 100 100 98 63 100 100 95 97 97 95 6 4 13 99 100
0 45 18 0 0 0 10 0 0 0 0 0 0 0 0 0 0 0 0 0 0 0 0 0 0 2 16 100 100 100 100 100 98 68 6 5 2 97 43 100 50 5 4 98 100
0 4 0 0 0 0 0 0 0 0 0 0 0 0 0 0 0 0 0 0 0 0 0 0 0 0 0 0 23 68 12 81 67 80 9 24 6 5 13 79 29 99 87 18 95
0 0 0 0 0 0 0 0 0 0 0 0 0 0 0 0 0 0 0 0 0 3 0 0 0 0 0 0 0 0 10 36 96 23 5 4 4 4 4 15 10 18 100 100 100
0 0 0 0 0 0 0 0 0 0 0 0 0 0 0 0 0 0 0 0 0 0 0 0 0 0 0 0 0 0 0 0 1 3 1 1 39 9 5 18 5 100 100 100 100
0 0 0 0 0 0 0 0 0 0 0 0 0 0 0 0 0 0 0 0 0 0 0 0 0 0 0 0 0 0 5 2 0 0 0 0 0 25 100 100 100 100 100 100 100
0 0 0 0 0 0 0 0 0 0 0 0 0 0 0 0 0 0 0 0 0 0 0 0 0 0 0 0 0 0 78 99 84 32 8 0 0 0 0 100 100 100 100 100 100
0 0 0 0 0 0 0 0 0 0 0 0 0 0 0 0 0 0 0 0 0 0 0 0 0 0 0 0 0 0 7 9 92 95 92 35 5 5 0 42 63 78 100 100 100
0 0 0 0 0 0 0 0 0 0 0 0 0 0 0 0 0 0 0 0 0 0 0 0 0 0 0 0 0 0 0 0 77 100 100 85 88 2 3 14 53 85 60 100 100
0 0 0 0 0 0 0 0 0 0 0 0 0 0 0 0 0 0 0 0 0 0 0 0 0 0 0 0 0 0 0 2 8 57 80 36 5 5 5 8 27 13 22 59 54
0 0 0 0 0 0 0 0 0 0 0 0 0 0 0 0 0 0 0 0 0 0 0 0 0 0 0 4 4 0 0 0 0 2 4 2 3 51 17 62 40 62 95 30 5